Date_and_time,latitude,longitude,wind_speed,RelWindDirFrom,WindDirFrom,air_pressure,air_temperature,relative_humidity,Temp,platform_speed_wrt_ground,air_pressure_at_mean_sea_level,platform_orientation
2018-06-06 23:40,50.9117183333333,-96.9825333333333,9.2,11.2,88,986.89,16.1,74,16.23,0.0,1013.19,360.0
2018-06-06 23:50,50.911725,-96.982535,6.2,8.6,92,986.98,16.0,76,16.23,0.0,1013.28,360.0
2018-06-07 00:00,50.9117283333333,-96.9825383333333,4.6,6.5,77,987.01,16.4,75,16.23,0.0,1013.27,90.0
2018-06-07 00:10,50.911725,-96.9825366666667,6.9,8.3,82,986.96,16.6,74,16.23,0.0,1013.22,90.0
2018-06-07 00:20,50.9117216666667,-96.9825483333333,6.0,7.5,86,986.99,16.4,75,16.23,0.0,1013.25,90.0
2018-06-07 00:30,50.9117333333333,-96.9825266666667,5.6,7.2,79,987.05,16.8,72,16.23,0.0,1013.26,90.0
2018-06-07 00:40,50.9117316666667,-96.98253,6.9,8.6,90,987.00,16.9,72,16.27,0.0,1013.21,90.0
2018-06-07 00:50,50.91173,-96.9825283333333,6.0,7.3,99,986.97,16.4,74,16.28,0.0,1013.22,90.0
2018-06-07 01:00,50.91173,-96.9825266666667,5.4,7.3,110,987.03,16.1,74,16.32,0.0,1013.30,270.0
2018-06-07 01:10,50.9117466666667,-96.9825366666667,4.9,6.8,117,987.04,15.8,76,16.35,0.0,1013.33,270.0
2018-06-07 01:20,50.9117366666667,-96.9825133333333,4.4,6.9,81,987.05,16.3,74,16.37,0.0,1013.32,270.0
2018-06-07 01:30,50.9117383333333,-96.9825183333333,3.9,6.6,82,987.13,16.7,71,16.36,0.0,1013.38,270.0
2018-06-07 01:40,50.9117333333333,-96.9825516666667,3.0,5.6,141,987.21,15.6,77,16.37,0.0,1013.51,270.0
2018-06-07 01:50,50.911735,-96.9825166666667,2.3,5.0,79,987.13,16.1,75,16.37,0.0,1013.38,270.0
2018-06-07 02:00,50.911735,-96.98251,2.7,4.6,90,987.15,16.2,72,16.36,0.0,1013.39,36.0
2018-06-07 02:10,50.911735,-96.982515,2.3,4.0,105,987.21,16.1,73,16.35,0.0,1013.48,36.0
2018-06-07 02:20,50.911735,-96.982515,3.9,5.5,159,987.17,15.1,78,16.34,0.0,1013.46,36.0
2018-06-07 02:30,50.911735,-96.9825183333333,3.2,4.8,149,987.08,14.7,80,16.30,0.0,1013.38,36.0
2018-06-07 02:40,50.9117433333333,-96.9825383333333,4.2,5.7,134,986.97,14.7,78,16.26,0.0,1013.29,36.0
2018-06-07 02:50,50.911735,-96.982525,4.4,5.4,136,986.94,14.7,79,16.24,0.0,1013.27,36.0
2018-06-07 03:00,50.9117216666667,-96.9825316666667,2.8,4.7,139,986.99,14.7,80,16.21,0.0,1013.34,360.0
2018-06-07 03:10,50.911755,-96.982545,3.8,6.0,176,987.21,14.6,83,16.16,0.0,1013.55,360.0
2018-06-07 03:20,50.9117466666667,-96.9825216666667,4.6,6.2,175,987.34,14.7,83,16.11,0.0,1013.66,360.0
2018-06-07 03:30,50.9117183333333,-96.9825233333333,3.5,5.4,181,987.33,14.6,81,16.09,0.0,1013.70,360.0
2018-06-07 03:40,50.91173,-96.9825283333333,3.1,4.2,190,987.32,14.2,83,16.04,0.0,1013.68,360.0
2018-06-07 03:50,50.91173,-96.982525,3.2,4.8,204,987.35,13.6,82,15.93,0.0,1013.74,360.0
2018-06-07 04:00,50.9117283333333,-96.9825233333333,4.1,5.9,197,987.38,13.3,80,15.83,0.0,1013.79,90.0
2018-06-07 04:10,50.9117416666667,-96.98254,3.6,4.6,193,987.31,13.1,82,15.76,0.0,1013.78,90.0
2018-06-07 04:20,50.911735,-96.9825316666667,3.4,4.2,195,987.29,12.9,83,15.69,0.0,1013.78,90.0
2018-06-07 04:30,50.9117383333333,-96.9825283333333,3.1,4.5,197,987.36,12.7,85,15.59,0.0,1013.87,90.0
2018-06-07 04:40,50.9117483333333,-96.9825216666667,4.2,5.3,191,987.30,12.5,86,15.49,0.0,1013.81,90.0
2018-06-07 04:50,50.9117383333333,-96.9825166666667,3.7,4.9,190,987.35,12.8,86,15.42,0.0,1013.85,90.0
2018-06-07 05:00,50.911735,-96.9825266666667,3.9,5.7,201,987.47,12.9,85,15.31,0.0,1013.97,270.0
2018-06-07 05:10,50.9117383333333,-96.9825316666667,4.4,5.9,195,987.44,12.9,81,15.24,0.0,1013.94,270.0
2018-06-07 05:20,50.91174,-96.9825283333333,4.0,5.3,192,987.38,12.7,85,15.23,0.0,1013.89,270.0
2018-06-07 05:30,50.91174,-96.9825283333333,4.4,5.7,190,987.32,12.7,87,15.20,0.0,1013.84,270.0
2018-06-07 05:40,50.91174,-96.9825266666667,4.8,5.8,196,987.37,12.9,86,15.17,0.0,1013.92,270.0
2018-06-07 05:50,50.91174,-96.9825283333333,4.2,5.6,193,987.31,13.0,84,15.14,0.0,1013.86,270.0
2018-06-07 06:00,50.91174,-96.98253,3.0,4.2,187,987.24,13.0,86,15.13,0.0,1013.80,360.0
2018-06-07 06:10,50.91174,-96.9825316666667,3.7,5.6,197,987.19,13.0,87,15.10,0.0,1013.76,360.0
2018-06-07 06:20,50.91174,-96.9825316666667,4.5,5.8,190,987.28,13.0,85,15.06,0.0,1013.86,360.0
2018-06-07 06:30,50.911735,-96.982545,4.3,5.7,184,987.13,13.0,86,15.03,0.0,1013.72,360.0
2018-06-07 06:40,50.9117316666667,-96.98254,4.1,5.1,195,987.15,12.8,89,15.00,0.0,1013.73,360.0
2018-06-07 06:50,50.9117316666667,-96.982535,3.8,6.0,176,987.09,12.9,89,15.01,0.0,1013.67,360.0
2018-06-07 07:00,50.911735,-96.9825333333333,4.5,6.5,174,987.08,13.5,91,15.03,0.0,1013.63,299.5
2018-06-07 07:10,50.9117366666667,-96.9825316666667,3.6,5.0,172,986.98,13.7,95,15.03,0.0,1013.51,299.5
2018-06-07 07:20,50.9117316666667,-96.982525,3.7,5.6,184,987.03,13.7,95,15.01,0.0,1013.57,299.5
2018-06-07 07:30,50.9117316666667,-96.9825283333333,5.0,6.3,175,987.10,14.0,94,15.00,0.0,1013.62,299.5
2018-06-07 07:40,50.9117333333333,-96.9825266666667,4.5,5.8,184,987.29,13.8,94,15.01,0.0,1013.82,299.5
2018-06-07 07:50,50.9117316666667,-96.982525,4.5,5.9,190,987.33,13.8,91,14.99,0.0,1013.85,299.5
2018-06-07 08:00,50.91173,-96.982525,4.8,5.8,193,987.34,13.5,92,14.99,0.0,1013.89,360.0
2018-06-07 08:10,50.9117133333333,-96.9825216666667,4.4,6.0,186,987.33,13.3,89,14.98,0.0,1013.89,360.0
2018-06-07 08:20,50.9117216666667,-96.9825283333333,5.5,7.9,188,987.53,13.3,91,14.96,0.0,1014.09,360.0
2018-06-07 08:30,50.91171,-96.9825483333333,5.3,7.2,190,987.70,13.4,85,14.96,0.0,1014.26,360.0
2018-06-07 08:40,50.9117066666667,-96.9825066666667,6.2,8.2,193,987.64,13.5,81,14.94,0.0,1014.20,360.0
2018-06-07 08:50,50.9117183333333,-96.9825183333333,5.9,9.0,199,987.98,13.6,77,14.92,0.0,1014.51,360.0
2018-06-07 09:00,50.9117216666667,-96.98252,6.9,9.8,187,988.03,13.7,77,14.92,0.0,1014.55,360.0
2018-06-07 09:10,50.9117433333333,-96.98254,7.6,10.0,189,988.06,13.8,76,14.93,0.0,1014.58,360.0
2018-06-07 09:20,50.9117416666667,-96.9825316666667,8.7,12.2,195,988.13,13.9,72,14.94,0.0,1014.63,360.0
2018-06-07 09:30,50.9117416666667,-96.9825333333333,8.9,13.2,189,987.81,13.6,72,14.92,0.0,1014.33,360.0
2018-06-07 09:40,50.9117383333333,-96.9825316666667,13.1,19.5,177,987.19,13.8,72,14.88,0.0,1013.68,360.0
2018-06-07 09:50,50.91172,-96.9825283333333,6.7,10.7,184,987.37,13.9,71,14.88,0.0,1013.87,360.0
2018-06-07 10:00,50.91173,-96.9825283333333,7.6,10.2,176,987.25,14.2,68,14.90,0.0,1013.74,170.2
2018-06-07 10:10,50.9117266666667,-96.982525,7.1,9.7,179,987.21,14.4,68,14.95,0.0,1013.70,170.2
2018-06-07 10:20,50.9117283333333,-96.9825216666667,4.6,10.3,186,987.36,14.3,68,14.99,0.0,1013.84,170.2
2018-06-07 10:30,50.91173,-96.9825233333333,2.1,3.8,332,987.88,14.6,67,14.99,0.0,1014.37,170.2
2018-06-07 10:40,50.91173,-96.982525,2.6,4.8,314,988.36,14.4,68,14.97,0.0,1014.86,170.2
2018-06-07 10:50,50.9117283333333,-96.982525,4.4,9.4,148,987.80,14.1,68,14.95,0.0,1014.30,170.2
2018-06-07 11:00,50.91172,-96.982535,10.5,12.6,160,987.27,14.6,70,14.97,0.0,1013.72,192.9
2018-06-07 11:10,50.9117183333333,-96.9825333333333,10.6,12.6,156,987.37,14.8,75,15.06,0.0,1013.82,192.9
2018-06-07 11:20,50.9117166666667,-96.9825333333333,9.3,11.3,152,987.41,14.9,79,15.13,0.0,1013.86,192.9
2018-06-07 11:30,50.9117183333333,-96.9825283333333,8.2,10.6,157,987.29,15.0,75,15.19,0.0,1013.73,192.9
2018-06-07 11:40,50.91172,-96.9825283333333,7.2,9.4,176,987.89,15.2,73,15.25,0.0,1014.33,192.9
2018-06-07 11:50,50.9117333333333,-96.9825416666667,8.3,11.3,170,987.85,15.1,69,15.30,0.0,1014.28,192.9
2018-06-07 12:00,50.9117383333333,-96.9825116666667,10.7,12.5,175,988.10,15.0,66,15.33,0.0,1014.53,360.0
2018-06-07 12:10,50.9117333333333,-96.98252,11.3,14.0,178,988.22,14.9,68,15.34,0.0,1014.66,360.0
2018-06-07 12:20,50.9117433333333,-96.9824766666667,11.5,15.2,179,988.17,14.8,69,15.33,0.0,1014.60,360.0
2018-06-07 12:30,50.9117266666667,-96.9825183333333,9.7,14.2,186,988.33,14.8,68,15.32,0.0,1014.77,360.0
2018-06-07 12:40,50.91173,-96.9825183333333,7.0,10.5,199,988.94,14.7,67,15.29,0.0,1015.42,360.0
2018-06-07 12:50,50.91173,-96.9825166666667,7.5,11.3,190,988.86,14.7,68,15.26,0.0,1015.31,360.0
2018-06-07 13:00,50.9117316666667,-96.9825166666667,8.8,12.6,189,988.75,14.9,68,15.25,0.0,1015.19,90.0
2018-06-07 13:10,50.91172,-96.9825216666667,9.4,14.4,196,988.73,15.1,65,15.28,0.0,1015.15,90.0
2018-06-07 13:20,50.9117166666667,-96.98251,7.5,11.1,201,988.78,15.1,65,15.31,0.0,1015.19,90.0
2018-06-07 13:30,50.9117433333333,-96.9825133333333,8.6,13.4,198,988.77,15.3,63,15.33,0.0,1015.16,90.0
2018-06-07 13:40,50.9117383333333,-96.9825266666667,8.4,12.2,198,988.79,15.7,61,15.38,0.0,1015.17,90.0
2018-06-07 13:50,50.911735,-96.9825216666667,8.3,12.8,198,988.84,16.2,59,15.47,0.0,1015.20,90.0
2018-06-07 14:00,50.9117316666667,-96.98252,7.9,12.1,199,988.67,16.4,58,15.57,0.0,1015.02,36.0
2018-06-07 14:10,50.9117333333333,-96.98252,7.1,12.4,199,988.46,16.8,56,15.68,0.0,1014.80,36.0
2018-06-07 14:20,50.9117016666667,-96.9825333333333,5.6,8.3,194,988.25,17.3,55,15.79,0.0,1014.56,36.0
2018-06-07 14:30,50.9117283333333,-96.9825233333333,7.6,15.3,195,988.29,18.0,53,15.87,0.0,1014.57,36.0
2018-06-07 14:40,50.91173,-96.98252,7.9,12.3,197,988.32,18.6,50,15.98,0.0,1014.58,36.0
2018-06-07 14:50,50.91173,-96.98253,7.3,12.6,195,988.26,18.6,50,16.10,0.0,1014.51,36.0
2018-06-07 15:00,50.9117233333333,-96.9825216666667,9.1,12.7,185,988.05,18.7,53,16.17,0.0,1014.28,360.0
2018-06-07 15:10,50.9117216666667,-96.9825216666667,11.8,15.8,180,987.87,19.0,50,16.23,0.0,1014.07,360.0
2018-06-07 15:20,50.9117233333333,-96.9825233333333,11.3,15.8,183,987.71,19.7,48,16.44,0.0,1013.87,360.0
2018-06-07 15:30,50.911725,-96.9825233333333,12.1,16.5,194,987.77,20.6,43,16.61,0.0,1013.87,360.0
2018-06-07 16:20,50.911725,-96.982525,8.3,15.0,221,987.85,22.3,38,17.99,0.0,1013.78,226.1
2018-06-07 17:00,50.9117266666667,-96.9825266666667,7.5,12.4,202,987.98,21.7,40,18.42,0.0,1013.91,226.1
2018-06-07 17:10,50.9117266666667,-96.9825316666667,6.2,12.9,212,987.96,21.8,39,18.44,0.0,1013.89,226.1
2018-06-07 17:20,50.9117233333333,-96.982535,7.4,15.5,210,987.94,22.3,37,18.48,0.0,1013.84,226.1
2018-06-07 17:30,50.9117166666667,-96.9825166666667,7.3,17.3,224,987.87,23.3,35,18.62,0.0,1013.71,226.1
2018-06-07 17:40,50.9117433333333,-96.9825333333333,7.5,15.2,220,987.87,23.5,35,18.89,0.0,1013.66,226.1
2018-06-07 17:50,50.9117216666667,-96.98253,8.5,16.0,228,987.88,23.4,34,19.18,0.0,1013.64,226.1
2018-06-07 18:00,50.911725,-96.9825283333333,8.3,15.2,221,987.92,23.4,34,19.36,0.0,1013.68,226.1
2018-06-07 18:10,50.9117266666667,-96.98253,9.2,16.0,220,987.89,23.4,35,19.53,0.0,1013.64,226.1
2018-06-07 18:20,50.9117283333333,-96.9825316666667,9.3,20.2,218,987.88,23.2,36,19.66,0.0,1013.59,226.1
2018-06-07 18:30,50.9117266666667,-96.9825283333333,10.0,16.7,206,987.84,23.2,36,19.71,0.0,1013.54,226.1
2018-06-07 18:40,50.9117266666667,-96.98253,8.5,17.1,214,987.73,23.9,36,19.85,0.0,1013.39,226.1
2018-06-07 18:50,50.9117266666667,-96.9825383333333,11.5,18.3,203,987.67,24.0,35,20.02,0.0,1013.35,226.1
2018-06-07 19:00,50.9117216666667,-96.9825266666667,11.6,18.4,202,987.65,24.3,36,20.22,0.0,1013.32,226.1
2018-06-07 19:10,50.9117233333333,-96.9825316666667,11.3,18.1,204,987.69,24.1,36,20.42,0.0,1013.34,226.1
2018-06-07 19:20,50.911725,-96.9825316666667,8.8,17.2,220,987.67,24.1,35,20.49,0.0,1013.28,226.1
2018-06-07 19:30,50.9117433333333,-96.98259,7.0,14.3,229,987.70,24.2,34,20.55,0.0,1013.29,226.1
2018-06-07 19:40,50.911735,-96.98255,8.3,14.6,235,987.61,24.3,33,20.57,0.0,1013.21,226.1
2018-06-07 19:50,50.9117333333333,-96.9825433333333,9.2,15.8,213,987.68,24.5,33,20.67,0.0,1013.26,226.1
2018-06-07 20:00,50.9116966666667,-96.98255,6.5,14.4,222,987.68,25.1,33,20.79,0.0,1013.24,202.7
2018-06-07 20:10,50.91174,-96.9825266666667,6.5,14.5,232,987.68,25.7,32,20.86,0.0,1013.23,202.7
2018-06-07 20:20,50.91172,-96.9825316666667,8.0,16.4,238,987.64,26.3,30,21.09,0.0,1013.15,202.7
2018-06-07 20:30,50.911725,-96.982545,8.9,15.7,235,987.69,26.5,30,21.38,0.0,1013.17,202.7
2018-06-07 20:40,50.9117266666667,-96.9825366666667,7.6,15.9,234,987.72,26.8,30,21.64,0.0,1013.18,202.7
2018-06-07 20:50,50.9117283333333,-96.9825366666667,6.9,14.1,226,987.69,27.0,30,21.86,0.0,1013.13,202.7
2018-06-07 21:00,50.91173,-96.9825383333333,7.0,13.5,237,987.66,27.0,29,21.97,0.0,1013.10,312.1
2018-06-07 21:10,50.9117316666667,-96.9825366666667,6.7,13.3,240,987.65,27.0,30,22.07,0.0,1013.09,312.1
2018-06-07 21:20,50.9117333333333,-96.982535,5.9,12.4,246,987.65,27.3,29,22.16,0.0,1013.08,312.1
2018-06-07 21:30,50.9117333333333,-96.982535,6.4,12.1,251,987.56,27.0,29,22.23,0.0,1013.00,312.1
2018-06-07 21:40,50.9117533333333,-96.9825633333333,7.8,14.5,253,987.51,26.9,29,22.24,0.0,1012.94,312.1
2018-06-07 21:50,50.911745,-96.9825333333333,4.4,11.5,236,987.51,26.9,28,22.29,0.0,1012.92,312.1
2018-06-07 22:00,50.911745,-96.9825333333333,7.8,15.5,267,987.44,27.4,28,22.30,0.0,1012.80,360.0
2018-06-07 22:10,50.911745,-96.9825266666667,5.3,12.7,268,987.41,27.5,28,22.36,0.0,1012.74,360.0
2018-06-07 22:20,50.9117433333333,-96.982525,7.9,11.6,285,987.34,27.6,28,22.39,0.0,1012.66,360.0
2018-06-07 22:30,50.911745,-96.98253,8.0,13.4,263,987.32,27.4,27,22.57,0.0,1012.62,360.0
2018-06-07 22:40,50.9117433333333,-96.982525,5.8,9.0,252,987.35,27.1,28,22.64,0.0,1012.66,360.0
2018-06-07 22:50,50.9117283333333,-96.9825183333333,5.0,8.2,285,987.32,26.8,29,22.54,0.0,1012.65,360.0
2018-06-07 23:00,50.911725,-96.9825216666667,4.1,7.2,231,987.36,27.1,28,22.40,0.0,1012.67,38.9
2018-06-07 23:10,50.911715,-96.98252,3.8,6.7,273,987.26,27.1,29,22.31,0.0,1012.56,38.9
2018-06-07 23:20,50.9117233333333,-96.9825283333333,5.3,8.7,260,987.27,27.2,28,22.30,0.0,1012.57,38.9
2018-06-07 23:30,50.91171,-96.9825166666667,3.6,7.3,241,987.26,27.5,28,22.33,0.0,1012.56,38.9
2018-06-07 23:40,50.911725,-96.98253,3.7,6.7,205,987.28,27.2,29,22.33,0.0,1012.59,38.9
2018-06-07 23:50,50.9117283333333,-96.982535,4.5,9.7,211,987.40,27.3,28,22.32,0.0,1012.69,38.9
